DELTA 1 DEB, 13569

Orbit data source: Space-Track

DELTA 1 DEB, 13569 is space debris in SSO originally from a launch on Sun, 05 Mar 1978 UTC launched from the Air Force Western Test Range (AFWTR). Debris objects in space refer to the collection of defunct objects orbiting the Earth. Examples of debris include non-operational satellites, rocket bodies, and fragments generated from explosions, collisions, or faulty payload assembly.

Loading next visibility...
Identifier
13569, 1978-026FG
Orbit
SSO
Country
Flag of USUS
Related business
Manufacturer
Unknown
Mission
Spacecraft
Bus & Motor
Unknown
Mass
Unknown
Launch date (UTC)
1978-03-05 (48 years ago)
Launch vehicle
Unknown
Launch site
Air Force Western Test Range (AFWTR)
Object type
Payload
Rocket body
Debris
Shape & HBR
Unknown shape, 0.1 m
Radar Cross Section
Medium (>0.1 m² and <1 m²)

Expand to show TLE details & history
Last TLE update: 2 days ago

TLE from 2 days ago
0 DELTA 1 DEB
1 13569U 78026FG  26171.24557941  .00002051  00000-0  91495-3 0  9990
2 13569  99.0767 276.0714 0096809 206.3613 183.7450 14.21449267283667
Epoch: 2026-06-20T05:53Z
TLE epoch observation values (Epoch: 2026-06-20T05:53:38.061Z)
Latitude
29.6706°
Longitude
-85.99474°
Altitude
893.698 km
Speed
7.372 km/s
True Right ascension
18h 03m 30s
True Declination
29° 31' 32"
Sunlit
Object was in full shadow at epoch
Visualization orbit readout
Latitude
Unknown
Longitude
Unknown
Altitude
Unknown
Speed
Unknown
Apparent Right ascension
Unknown
Apparent Declination
Unknown
Sunlit
N/A
Visualization observer readout
Local Sidereal Time
03:41:36
Azimuth
Unknown
Elevation
Unknown
Doppler factor
Unknown
Orbital elements
Apogee altitude
887.291 km
Perigee altitude
747.968 km
Semi-major axis
7,195.767 km
Eccentricity
0.00968
Inclination
99.0767°
RAAN
276.0714°
Arg. of periapsis
206.3613°
True anomaly
183.67341°
Mean anomaly
183.745°
Eccentric anomaly
183.70912°
Mean motion
3.55572 °/min
Orbital period
101.25 mins
BSTAR
0.00091495
Loading maneuver chart data...
Computing Atmospheric mass density...

Documentation

Showing up to 5 results
|